User: anonymous   Login
Location: Unspecified
(0.0000°N, 0.0000°E)
Time: 21:59:34
(UTC+02:00)
Language:

H-2A R/B - Orbit

View from above orbital plane
View from above orbital plane
View from above satellite
View from above satellite

Ground track
Ground track

The orbit data is extracted from the following two-line orbital elements,

1 28932U 06002B   15187.57284936  .00001646  00000-0  16356-3 0  9999
2 28932 098.2509 070.3284 0093600 120.1277 300.8067 14.89995465511787
Epoch (UTC): 06 July 2015 13:44:54
Eccentricity: 0.0093600
inclination: 98.2509°
perigee height: 532 km
apogee height: 663 km
right ascension of ascending node: 70.3284°
argument of perigee: 120.1277°
revolutions per day: 14.89995465
mean anomaly at epoch: 300.8067°
orbit number at epoch: 51178

The dashed part of the orbit path shows where the satellite is in the earth's shadow,  

DLR